Change the Weather History Date:

Friday, January 18, 2013

  Actual Average Record
Temperature  
Mean Temperature 22 °F -  
Max Temperature 37 °F 30 °F 42 °F (2011)
Min Temperature 8 °F 20 °F -11 °F (2004)
Degree Days  
Heating Degree Days 42    
Moisture  
Dew Point 13 °F    
Average Humidity 68    
Maximum Humidity 80    
Minimum Humidity 52    
Precipitation  
Precipitation 1.18 in - - ()
Sea Level Pressure  
Sea Level Pressure 29.85 in    
Wind  
Wind Speed 16 mph (NE)    
Max Wind Speed 28 mph    
Max Gust Speed 37 mph    
Visibility 10 miles    
Events      
Averages and records for this station are not official NWS values.
T = Trace of Precipitation, MM = Missing Value Source: NWS Daily Summary

Daily Weather History Graph

Daily Weather History Graph

Search for Another Location

Airport or City:

Trip Planner

Search our weather history database for the weather conditions in past years. The results will help you decide how hot, cold, wet, or windy it might be!

Date:

Astronomy

Jan. 18, 2013 Rise Set
Actual Time 9:56 AM AKST 5:34 PM AKST
Civil Twilight 9:11 AM AKST 6:19 PM AKST
Nautical Twilight 8:23 AM AKST 7:07 PM AKST
Astronomical Twilight 7:37 AM AKST 7:53 PM AKST
Moon 11:59 AM AKST (1/18) 2:13 AM AKST (1/18)
Length of Visible Light 9h 08m
Length of Day
7h 37m
Waxing Crescent, 49% of the Moon is Illuminated
Jan 18
Waxing Crescent
Jan 18
First Quarter
Jan 26
Full
Feb 3
Last Quarter
Feb 9
New

Hourly Weather History & Observations

Time (AKST) Temp. Windchill Dew Point Humidity Pressure Visibility Wind Dir Wind Speed Gust Speed Precip Events Conditions
12:16 AM 10.4 °F -8.6 °F -2.2 °F 57% 30.00 in 10.0 mi NE 20.7 mph - N/A   Overcast
12:36 AM 10.4 °F -7.7 °F -0.4 °F 62% 30.00 in 10.0 mi NE 18.4 mph - N/A   Overcast
12:56 AM 10.4 °F -7.2 °F -0.4 °F 62% 30.00 in 10.0 mi ENE 17.3 mph - 0.01 in   Overcast
1:16 AM 10.4 °F -6.0 °F -0.4 °F 62% 30.00 in 10.0 mi ENE 15.0 mph - N/A   Overcast
1:36 AM 10.4 °F -8.6 °F -0.4 °F 62% 29.99 in 10.0 mi NE 20.7 mph - N/A   Overcast
1:56 AM 10.4 °F -8.6 °F -0.4 °F 62% 29.97 in 10.0 mi NE 20.7 mph 27.6 mph N/A   Overcast
2:16 AM 10.4 °F -8.2 °F -0.4 °F 62% 29.98 in 10.0 mi NE 19.6 mph - N/A   Overcast
2:56 AM 8.6 °F -10.5 °F 1.4 °F 73% 29.96 in 10.0 mi NE 19.6 mph - 0.01 in   Overcast
3:36 AM 10.4 °F -6.6 °F 1.4 °F 67% 29.97 in 10.0 mi NE 16.1 mph - N/A   Overcast
3:56 AM 10.4 °F -8.2 °F 1.4 °F 67% 29.96 in 10.0 mi NE 19.6 mph 23.0 mph N/A   Overcast
4:16 AM 10.4 °F -8.2 °F 1.4 °F 67% 29.95 in 10.0 mi NE 19.6 mph - N/A   Overcast
4:36 AM 10.4 °F -8.6 °F 1.4 °F 67% 29.94 in 10.0 mi NE 20.7 mph - N/A   Overcast
4:56 AM 10.4 °F -8.2 °F 1.4 °F 67% 29.94 in 10.0 mi NE 19.6 mph 26.5 mph N/A   Overcast
5:16 AM 10.4 °F -8.6 °F 1.4 °F 67% 29.93 in 10.0 mi NE 20.7 mph - N/A   Overcast
5:36 AM 12.2 °F -6.3 °F 3.2 °F 67% 29.92 in 10.0 mi NE 20.7 mph - N/A   Overcast
5:56 AM 10.4 °F -8.2 °F 3.2 °F 73% 29.92 in 10.0 mi NE 19.6 mph - N/A   Overcast
6:16 AM 10.4 °F -8.2 °F 3.2 °F 73% 29.91 in 10.0 mi NE 19.6 mph - N/A   Overcast
6:36 AM 10.4 °F -8.2 °F 3.2 °F 73% 29.92 in 10.0 mi ENE 19.6 mph - N/A   Overcast
6:56 AM 10.4 °F -7.2 °F 3.2 °F 73% 29.90 in 10.0 mi ENE 17.3 mph - N/A   Overcast
7:16 AM 12.2 °F -3.7 °F 3.2 °F 67% 29.90 in 10.0 mi NE 15.0 mph - N/A   Mostly Cloudy
7:36 AM 12.2 °F -4.3 °F 3.2 °F 67% 29.90 in 10.0 mi NE 16.1 mph - N/A   Mostly Cloudy
7:56 AM 12.2 °F -5.8 °F 5.0 °F 73% 29.90 in 10.0 mi ENE 19.6 mph 23.0 mph N/A   Overcast
8:16 AM 12.2 °F -5.8 °F 5.0 °F 73% 29.90 in 10.0 mi NE 19.6 mph - N/A   Overcast
8:36 AM 12.2 °F -5.3 °F 5.0 °F 73% 29.90 in 10.0 mi NE 18.4 mph - N/A   Overcast
8:56 AM 12.2 °F -5.8 °F 5.0 °F 73% 29.89 in 10.0 mi NE 19.6 mph - N/A   Overcast
9:16 AM 12.2 °F -4.3 °F 6.8 °F 79% 29.90 in 10.0 mi NE 16.1 mph - 0.02 in   Overcast
9:36 AM 12.2 °F -4.8 °F 5.0 °F 73% 29.90 in 10.0 mi NE 17.3 mph - 0.02 in   Overcast
9:56 AM 14.0 °F -1.4 °F 6.8 °F 73% 29.89 in 10.0 mi NE 15.0 mph - 0.02 in   Overcast
10:16 AM 14.0 °F -1.4 °F 8.6 °F 79% 29.89 in 10.0 mi NE 15.0 mph - 0.01 in   Mostly Cloudy
10:36 AM 15.8 °F -0.6 °F 8.6 °F 73% 29.89 in 10.0 mi NNE 18.4 mph - 0.01 in   Scattered Clouds
10:56 AM 15.8 °F 0.9 °F 8.6 °F 73% 29.88 in 10.0 mi NNE 15.0 mph - 0.01 in   Partly Cloudy
11:16 AM 15.8 °F 0.3 °F 10.4 °F 79% 29.89 in 10.0 mi NE 16.1 mph - N/A   Clear
11:36 AM 17.6 °F 4.3 °F 8.6 °F 68% 29.88 in 10.0 mi NNE 12.7 mph - N/A   Partly Cloudy
11:56 AM 17.6 °F 3.7 °F 10.4 °F 73% 29.88 in 10.0 mi NNE 13.8 mph - N/A   Clear
12:16 PM 17.6 °F 4.3 °F 10.4 °F 73% 29.88 in 10.0 mi NNE 12.7 mph - N/A   Partly Cloudy
12:36 PM 19.4 °F 7.9 °F 14.0 °F 80% 29.88 in 10.0 mi NE 10.4 mph - 0.01 in   Scattered Clouds
12:56 PM 21.2 °F 10.9 °F 14.0 °F 74% 29.87 in 10.0 mi NNE 9.2 mph - 0.02 in   Mostly Cloudy
1:16 PM 21.2 °F 11.7 °F 15.8 °F 80% 29.86 in 10.0 mi NNE 8.1 mph - N/A   Overcast
1:36 PM 23.0 °F 12.4 °F 17.6 °F 80% 29.86 in 10.0 mi NNE 10.4 mph - N/A   Overcast
1:56 PM 24.8 °F 14.0 °F 17.6 °F 74% 29.85 in 10.0 mi NNW 11.5 mph - N/A   Overcast
2:16 PM 24.8 °F 13.4 °F 17.6 °F 74% 29.85 in 10.0 mi NNE 12.7 mph - N/A   Overcast
2:36 PM 24.8 °F 16.9 °F 17.6 °F 74% 29.85 in 10.0 mi North 6.9 mph - N/A   Overcast
2:56 PM 24.8 °F 14.6 °F 19.4 °F 80% 29.84 in 10.0 mi North 10.4 mph - N/A   Overcast
3:16 PM 24.8 °F 19.1 °F 19.4 °F 80% 29.83 in 10.0 mi North 4.6 mph - N/A   Overcast
3:36 PM 28.4 °F - 19.4 °F 69% 29.81 in 10.0 mi Calm Calm - N/A   Overcast
3:56 PM 28.4 °F 20.4 °F 19.4 °F 69% 29.81 in 10.0 mi North 8.1 mph - N/A   Overcast
4:16 PM 30.2 °F 21.9 °F 21.2 °F 69% 29.79 in 10.0 mi North 9.2 mph - 0.01 in   Overcast
4:36 PM 30.2 °F - 19.4 °F 64% 29.79 in 10.0 mi Calm Calm - 0.01 in   Overcast
4:56 PM 33.8 °F 30.8 °F 21.2 °F 60% 29.79 in 10.0 mi SSW 3.5 mph - 0.01 in   Overcast
5:16 PM 33.8 °F 30.8 °F 21.2 °F 60% 29.79 in 10.0 mi ESE 3.5 mph - N/A   Overcast
5:36 PM 33.8 °F 26.4 °F 24.8 °F 70% 29.78 in 10.0 mi SSE 9.2 mph - 0.03 in   Overcast
5:56 PM 33.8 °F 29.6 °F 23.0 °F 65% 29.78 in 10.0 mi ESE 4.6 mph - 0.03 in   Overcast
6:16 PM 35.6 °F 28.0 °F 24.8 °F 65% 29.76 in 10.0 mi ESE 10.4 mph - N/A   Overcast
6:36 PM 35.6 °F 27.1 °F 24.8 °F 65% 29.75 in 10.0 mi East 12.7 mph - 0.01 in   Overcast
6:56 PM 35.6 °F 28.0 °F 23.0 °F 60% 29.75 in 10.0 mi East 10.4 mph - 0.01 in   Overcast
7:16 PM 35.6 °F 26.2 °F 23.0 °F 60% 29.74 in 10.0 mi East 15.0 mph - 0.02 in   Overcast
7:36 PM 35.6 °F 27.5 °F 23.0 °F 60% 29.74 in 10.0 mi East 11.5 mph 19.6 mph 0.04 in   Overcast
7:56 PM 35.6 °F 26.6 °F 24.8 °F 65% 29.74 in 10.0 mi East 13.8 mph - 0.06 in   Overcast
8:16 PM 35.6 °F 25.5 °F 24.8 °F 65% 29.73 in 10.0 mi East 17.3 mph - 0.01 in   Overcast
8:36 PM 35.6 °F 26.2 °F 24.8 °F 65% 29.73 in 10.0 mi East 15.0 mph - 0.02 in   Overcast
8:56 PM 35.6 °F 27.1 °F 24.8 °F 65% 29.73 in 10.0 mi East 12.7 mph 18.4 mph 0.03 in   Overcast
9:16 PM 37.4 °F 28.2 °F 24.8 °F 60% 29.71 in 10.0 mi SE 16.1 mph 21.9 mph N/A   Overcast
9:36 PM 37.4 °F 29.8 °F 23.0 °F 56% 29.70 in 10.0 mi East 11.5 mph 26.5 mph 0.01 in   Overcast
9:56 PM 37.4 °F 32.8 °F 24.8 °F 60% 29.70 in 10.0 mi East 5.8 mph 19.6 mph 0.01 in   Overcast
10:16 PM 37.4 °F 26.6 °F 23.0 °F 56% 29.69 in 10.0 mi ENE 21.9 mph 27.6 mph N/A   Overcast
10:36 PM 35.6 °F 23.0 °F 24.8 °F 65% 29.68 in 10.0 mi East 27.6 mph 36.8 mph 0.09 in   Overcast
10:56 PM 35.6 °F 24.0 °F 23.0 °F 60% 29.68 in 10.0 mi East 23.0 mph 29.9 mph 0.09 in   Overcast
11:16 PM 35.6 °F 24.2 °F 23.0 °F 60% 29.68 in 10.0 mi East 21.9 mph 34.5 mph 0.01 in   Overcast
11:36 PM 35.6 °F 23.4 °F 24.8 °F 65% 29.67 in 10.0 mi East 25.3 mph 33.4 mph 0.01 in   Overcast
11:56 PM 35.6 °F 25.5 °F 24.8 °F 65% 29.67 in 10.0 mi East 17.3 mph 26.5 mph 0.01 in   Overcast